Tracking 19854 objects as of 24-Sep-2019
HD Live streaming from Space Station
objects crossing your sky now

DELTA 1 DEB

Track DELTA 1 DEB now!
10-day predictions


NORAD ID: 2707
Int'l Code: 1967-006D
Perigee: 1,236.1 km
Apogee: 1,466.9 km
Inclination: 101.9 °
Period: 112.6 minutes
Semi major axis: 7722 km
RCS: 0.0659 m2 (small)
Launch date: January 26, 1967
Source: United States (US)
Launch site: AIR FORCE WESTERN TEST RANGE (AFWTR)

Note: This is SATELLITE DEBRIS
aabbcc
Your satellite tracking list
Your tracking list is empty




NASA's NSSDC Master Catalog

Two Line Element Set (TLE):
1  2707U 67006D   19265.96619594 -.00000021 +00000-0 +12720-3 0  9996
2  2707 101.9398 080.2294 0149418 277.6223 236.3973 12.79279419457875
Source of the keplerian elements: AFSPC